Commit Graph

209 Commits

Author SHA1 Message Date
Anna f57146edd0 fix: add support for plugin name in about tab name 2022-06-01 17:32:39 -04:00
Anna 41f91b4661 chore: pull glyph range text into localisation files 2022-06-01 17:17:01 -04:00
Anna 744d9e1941 fix: rebuild fonts if glyphs changed 2022-06-01 17:16:51 -04:00
Anna b3ae2dbc1a feat: add support for lots of different glyph ranges 2022-06-01 17:14:32 -04:00
Anna bae9ce458a chore: pull Chinese options into localisation files 2022-06-01 16:46:30 -04:00
Anna 2987247fcf feat: add support for Chinese characters 2022-06-01 16:44:45 -04:00
Anna 9068199236 fix: only scroll when using arrow keys 2022-05-31 23:55:02 -04:00
Anna 914bb2ac16 feat: allow arrow keys 2022-05-31 23:54:44 -04:00
Anna 7fdc1d75ff feat: add autotranslate qol features
Allow using Ctrl+# to select the first 10 results. Allow pressing
Enter to select the first result. Fix the Escape key not closing the
autotranslate window. Increase the window size.
2022-05-30 15:34:00 -04:00
Anna 13d2e7be2d fix: use unique labels 2022-05-30 14:41:43 -04:00
Anna 212835c33a feat: add option to sort auto translate list 2022-05-30 00:52:44 -04:00
Anna 70cecf4a6d feat: add basic autotranslate support 2022-05-30 00:42:23 -04:00
Anna de0309e428 fix: allow popups with popped-out tabs 2022-05-13 10:56:36 -04:00
Anna f195f55274 feat: update for 6.11 2022-05-12 18:50:05 -04:00
Anna 327a40f63c refactor: store alpha as [0, 100] 2022-02-19 16:15:25 -05:00
Anna e55bfcfb49 feat: add popped-out tab opacity 2022-02-19 16:09:32 -05:00
Anna 28545f1df6 feat: disable scrolling container windows 2022-02-19 07:20:38 -05:00
Anna 725c15ff2d fix: initialise in settings in ctor 2022-02-19 06:56:57 -05:00
Anna 4d3b961704 feat: add open config button 2022-02-19 06:56:38 -05:00
Anna 048826baed feat: add an option to hide redundant timestamps 2022-02-18 13:47:31 -05:00
Anna 04783fcf02 feat: add tab pop-out 2022-02-18 13:35:46 -05:00
Anna aa3cec4f82 feat: validate chat input 2022-02-18 00:34:39 -05:00
Anna b98c69c774 chore: add more translator credits 2022-02-16 20:35:05 -05:00
Anna 458f4a673c feat: add multi-client mode 2022-02-16 15:38:55 -05:00
Anna 259000d92a fix: handle more weird wrapping stuff 2022-02-16 15:15:41 -05:00
Anna 1c1fd5d6d5 feat: add jank hover highlight for links 2022-02-15 18:36:30 -05:00
Anna 1c22fe16b3 fix: handle toggle correctly 2022-02-15 17:03:13 -05:00
Anna 1409da708d refactor: rework the command system 2022-02-15 16:57:15 -05:00
Anna cbaa3fef4f chore: pull header into resource 2022-02-15 13:23:43 -05:00
Anna a1719dbee1 chore: pull warning into resource 2022-02-15 13:22:47 -05:00
Anna a0525562ff chore: remove boms 2022-02-15 13:02:46 -05:00
Anna 9b7b84a58d feat: add chat database 2022-02-15 12:58:55 -05:00
Anna 18c311ace5 fiX: handle commands with temp channels better 2022-02-11 01:51:58 -05:00
Anna 01373d3899 fix: properly space input 2022-02-11 01:35:39 -05:00
Anna b170c8fb0d fix: reduce spacing at bottom of chat 2022-02-11 01:22:49 -05:00
Anna c09b21185b chore: remove comment 2022-02-10 20:12:33 -05:00
Anna 43a539a465 feat: turn settings tabs into a sidebar 2022-02-08 19:26:11 -05:00
Anna 7f272feb4f fix: move selection with tab 2022-02-08 19:06:24 -05:00
Anna 5215948a13 fix: sort chat colours 2022-02-08 18:49:55 -05:00
Anna 4779ed0f48 feat: add language override 2022-02-08 15:23:00 -05:00
Anna 9b1e87209a refactor: move command help options to misc 2022-02-08 15:21:35 -05:00
Anna b5d2550b30 chore: add more translator credits 2022-02-08 15:20:48 -05:00
Anna f70b23a476 feat: add keybind mode options 2022-02-08 15:20:10 -05:00
Anna 252498515a feat: add option to hide when game ui is hidden 2022-02-07 14:44:19 -05:00
Anna 2159f7a36d fix: use placeholder 2022-02-07 02:24:57 -05:00
Anna 956b1daaad feat: add command help 2022-02-07 00:50:30 -05:00
Anna c034e66354 feat: add about tab 2022-02-06 23:33:11 -05:00
Anna 310ee7600d feat: add vanilla presets 2022-02-06 16:45:19 -05:00
Anna 256494e858 chore: use placeholders for all plugin name references 2022-02-06 04:11:36 -05:00
Anna 368b0a8832 fix: use better character for detecting jp fonts 2022-02-06 03:45:43 -05:00